Regional Weather Roundup
Issued by NWS Portland, ME

Home | Current Version | Previous Version | Text Only | Print | Product List | Glossary On
Versions: 1 2 3 4 5 6 7 8 9 10 11 12 13 14 15 16 17 18 19 20 21 22 23 24 25 26 27 28 29 30 31 32 33 34 35 36 37 38 39 40 41 42 43 44 45 46 47 48 49 50
240
ASUS41 KGYX 270010
RWRGYX
WEATHER ROUNDUP FOR MAINE AND NEW HAMPSHIRE
NATIONAL WEATHER SERVICE GRAY ME
800 PM EDT MON SEP 26 2016

MEZ002-005-006-010-012-015-018-020-021-024-026-027-029-270100-
MAINE

CITY           SKY/WX    TMP DP  RH WIND       PRES   REMARKS
PORTLAND       CLOUDY    54  45  71 S6        30.06F
6HR MIN TEMP:  54; 6HR MAX TEMP:  63;

SANFORD        PTCLDY    51  45  79 CALM      30.06F
BAR HARBOR     CLEAR    N/A N/A N/A SW7       30.07S
WISCASSET      CLOUDY    50  43  77 CALM      30.08F
6HR MIN TEMP:  50; 6HR MAX TEMP:  64;

ROCKLAND       PTCLDY    52  43  71 W5        30.07S
FRYEBURG       CLOUDY    53  40  61 CALM      30.03F
6HR MIN TEMP:  51; 6HR MAX TEMP:  67;

LEWISTONAUBURN PTCLDY    51  42  71 S7        30.05F
AUGUSTA        CLOUDY    51  41  68 SW6       30.06S
6HR MIN TEMP:  51; 6HR MAX TEMP:  63;

WATERVILLE     PTCLDY    51  41  68 S6        30.03R
BANGOR         CLOUDY    52  44  74 S6        30.05S
6HR MIN TEMP:  52; 6HR MAX TEMP:  64;

GREENVILLE       N/A     47  39  74 S3        30.00S
6HR MIN TEMP:  47; 6HR MAX TEMP:  60;

MILLINOCKET    CLEAR     47  42  83 CALM      30.02S
6HR MIN TEMP:  47; 6HR MAX TEMP:  63;

HOULTON        CLEAR     42  41  96 CALM      30.00S
6HR MIN TEMP:  41; 6HR MAX TEMP:  62;

PRESQUE ISLE   CLEAR     43  42  97 S3        30.00R
6HR MIN TEMP:  43; 6HR MAX TEMP:  60;

FRENCHVILLE    CLEAR     52  38  58 W7        29.97S
6HR MIN TEMP:  52; 6HR MAX TEMP:  59;

CARIBOU        CLEAR     51  41  68 SW5       29.98S
6HR MIN TEMP:  50; 6HR MAX TEMP:  61;

$$

NHZ002-005-008-009-011-012-014-270100-
NEW HAMPSHIRE

CITY           SKY/WX    TMP DP  RH WIND       PRES   REMARKS
PORTSMOUTH     MOCLDY    55  46  71 SE5       30.04F
ROCHESTER      CLOUDY    54  44  69 S3        30.05F
6HR MIN TEMP:  54; 6HR MAX TEMP:  66;

NASHUA         PTCLDY    57  46  66 VRB5      30.05F
MANCHESTER     CLOUDY    59  42  53 SE9       30.03F
6HR MIN TEMP:  59; 6HR MAX TEMP:  68;

CONCORD        MOCLDY    57  42  57 CALM      30.04S
6HR MIN TEMP:  55; 6HR MAX TEMP:  68;

LACONIA        CLOUDY    59  39  47 S8        30.03F
PLYMOUTH       FAIR      51  47  87 CALM      30.03R
BERLIN         CLOUDY    47  43  86 CALM      30.01F
6HR MIN TEMP:  47; 6HR MAX TEMP:  64;

WHITEFIELD     CLOUDY    50  45  83 CALM      30.00F
6HR MIN TEMP:  50; 6HR MAX TEMP:  62;

JAFFREY        CLOUDY    52  45  77 CALM      30.05F
6HR MIN TEMP:  52; 6HR MAX TEMP:  64;

KEENE          CLOUDY    51  47  86 CALM      30.04R
LEBANON        PTCLDY    52  47  83 CALM      30.01S
6HR MIN TEMP:  52; 6HR MAX TEMP:  67;

MT WASHINGTON  MOCLDY    37  18  44 W32         N/A
6HR MIN TEMP:  34; 6HR MAX TEMP:  40;

$$

VTZ005-007-008-270100-
VERMONT

CITY           SKY/WX    TMP DP  RH WIND       PRES   REMARKS
ST JOHNSBURY     N/A     52  46  80 MISG      29.98F
MONTPELIER     CLOUDY    55  42  61 S6        30.02S
BURLINGTON     MOCLDY    60  40  47 S3        29.94F
$$

MAZ007-012-024-CTZ003-RIZ002-NYZ038-NYZ072-270100-
SOUTHERN NEW ENGLAND AND NY

CITY           SKY/WX    TMP DP  RH WIND       PRES   REMARKS
BOSTON         CLOUDY    61  48  62 S14       30.06F
WORCESTER      CLOUDY    56  46  69 S9        30.07S
NANTUCKET      CLEAR     59  43  55 SW10      30.12F
PROVIDENCE     CLOUDY    59  47  64 S8        30.09F
HARTFORD       CLOUDY    61  48  62 S8        30.05S
ALBANY         CLOUDY    65  48  54 S9        29.97F
NEW YORK CITY  CLOUDY    69  51  52 S17G24    30.04F
$$

ANZ081-ANZ082-ANZ150-NHZ014-MEZ023>029-270100-
COASTAL MARINE OBSERVATIONS

STATION/POSITION TIME  TEMP    WIND        PRES    WAVE
                       AIR SEA DIR/SP/G            HT/PER
                 (UTC) (F)     (DEG/KT/KT) (MB)    (FT/S)
MOUNT DESERT ROC 0000   54     220/ 13/ 13 1018.6F
MATINICUS ROCK   0000   55     210/ 14/ 15 1018.0F
ISLE OF SHOALS   0000   60     160/ 21/ 22 1017.6F
JEFFREYS LEDGE   2338      61                N/A     2/ 3
CASHES LEDGE BUO 2350   57 60  200/ 10/ 12 1018.7F   1/11
GEORGES BANK BUO 2250   59 63              1020.4    3/ 6
$$

.............KEY..............
   WCI - WIND CHILL
   TC  - TEMPERATURE IN CELSIUS
   VSB - VISIBILITY IN MILES
   HX  - HEAT INDEX
   FAIR- INDICATES FEW OR NO CLOUDS BELOW 12,000 FT, WITH NO
         SIGNIFICANT WEATHER AND/OR OBSTRUCTIONS TO VISIBILITY.






USA.gov is the U.S. government's official web portal to all federal, state and local government web resources and services.